Regional Weather Roundup
Issued by NWS Sioux Falls, SD

Home | Current Version | Previous Version | Graphics & Text | Print | Product List | Glossary Off
Versions: 1 2 3 4 5 6 7 8 9 10 11 12 13 14 15 16 17 18 19 20 21 22 23 24 25 26 27 28 29 30 31 32 33 34 35 36 37 38 39 40 41 42 43 44 45 46 47 48 49 50

000
ASUS43 KFSD 271002
RWRFSD

WEATHER ROUNDUP FOR SE SOUTH DAKOTA/SW MINNESOTA/NW IOWA
NATIONAL WEATHER SERVICE SIOUX FALLS SD
500 AM CDT MON MAR 27 2017

NOTE: "FAIR" INDICATES FEW OR NO CLOUDS BELOW 12,000 FEET WITH NO
SIGNIFICANT WEATHER AND OR OBSTRUCTIONS TO VISIBILITY.


SDZ038>040-050-052>070-271100-
SOUTHEAST SOUTH DAKOTA

CITY           SKY/WX    TMP DP  RH WIND       PRES   REMARKS
BROOKINGS      FOG       33  32  96 CALM      29.94S VSB 1/2
CHAMBERLAIN    FOG       32  32 100 CALM      29.93F VSB 1/2
HURON          CLOUDY    38  36  92 CALM      29.93F
MADISON        FOG       32  32 100 CALM      29.94S VSB 1
MITCHELL       FOG       32  32 100 CALM      29.95F VSB 1/2
SIOUX FALLS    CLOUDY    41  38  89 E3        29.95S
WINNER         FAIR      33  32  96 CALM      29.92F FOG
YANKTON        CLOUDY    43  39  87 CALM      29.95R
$$

MNZ071-072-080-081-089-090-097-098-271100-
SOUTHWEST MINNESOTA

CITY           SKY/WX    TMP DP  RH WIND       PRES   REMARKS
FAIRMONT       CLOUDY    39  37  92 NW5       29.94F
JACKSON        CLOUDY    37  37 100 CALM      29.95S FOG
MARSHALL       CLOUDY    37  36  96 CALM      29.96S
MONTEVIDEO     CLOUDY    36  36 100 N5        29.98R
PIPESTONE      CLOUDY    36  32  87 CALM      29.93F
REDWOOD FALLS  CLOUDY    40  36  86 N5        29.95R
TRACY          CLOUDY    40  38  91 NW3       29.96R
WINDOM         PTCLDY    37  37 100 CALM      29.95R
WORTHINGTON    CLOUDY    36  34  92 NW7       29.95S
$$

IAZ001>003-012>014-020>022-031-032-NEZ013-014-SDZ071-271100-
NORTHWEST IOWA

CITY           SKY/WX    TMP DP  RH WIND       PRES   REMARKS
CHEROKEE       CLOUDY    40  40  97 N3        29.95S
ESTHERVILLE    CLOUDY    38  38 100 NW7       29.94F
LE MARS        CLOUDY    41  39  93 CALM      29.96R
ORANGE CITY    MOCLDY    39  37  93 CALM      29.94S
SHELDON        CLOUDY    37  37 100 N6        29.93S FOG
SIOUX CITY     CLOUDY    43  40  89 CALM      29.95S
SPENCER        CLOUDY    39  38  96 CALM      29.95S
STORM LAKE     CLOUDY    39  39 100 N6        29.94R
$$

ABBREVIATIONS USED IN REMARKS
   TC - TEMPERATURE IN CELSIUS
  WCI - WIND CHILL INDEX
   HX - HEAT INDEX
  VSB - VISIBILITY




USA.gov is the U.S. government's official web portal to all federal, state and local government web resources and services.